Regional Weather Roundup
Issued by NWS

Home | Current Version | Previous Version | Graphics & Text | Print | Product List | Glossary On
Versions: 1 2 3 4 5 6 7 8 9 10 11 12 13 14 15 16 17 18 19 20 21 22 23 24 25 26 27 28 29 30 31 32 33 34 35 36 37 38 39 40 41 42 43 44 45 46 47 48 49 50
000
ASUS43 KFSD 120102
RWRSD

WEATHER ROUNDUP FOR SOUTH DAKOTA
NATIONAL WEATHER SERVICE SIOUX FALLS SD
800 PM CDT FRI JUL 11 2014

NOTE: "FAIR" INDICATES FEW OR NO CLOUDS BELOW 12,000 FEET WITH NO
SIGNIFICANT WEATHER AND/OR OBSTRUCTIONS TO VISIBILITY.


SDZ001>005-009-010-012>017-120200-
NORTHWEST AND NORTH CENTRAL SOUTH DAKOTA

CITY           SKY/WX    TMP DP  RH WIND       PRES   REMARKS
BUFFALO          N/A     74  58  57 NE14      30.04R
FAITH            N/A     77  64  64 NE8       30.05S
MOBRIDGE       PTSUNNY   81  66  60 N9        30.00R
$$

SDZ012>016-024>037-041>051-057-063-072>074-120200-
SOUTHWEST AND SOUTH CENTRAL SOUTH DAKOTA

CITY           SKY/WX    TMP DP  RH WIND       PRES   REMARKS
RAPID CTY ARPT CLOUDY    66  63  90 SW12      30.07F
PIERRE         CLOUDY    77  62  59 CALM      29.97S
CUSTER         LGT RAIN  61  58  90 CALM      30.24F
ELLSWORTH AFB  CLOUDY    67  63  87 SW10      30.08F
PHILIP         CLOUDY    81  69  67 NE7       30.00R
PINE RIDGE     TSTM      65  63  93 VRB3      30.14R VSB 3/4
WINNER         FAIR      81  69  67 SE7       29.99R
$$

SDZ004>011-016>023-039-040-120200-
NORTHEAST SOUTH DAKOTA

CITY           SKY/WX    TMP DP  RH WIND       PRES   REMARKS
ABERDEEN       MOSUNNY   81  65  58 N7        29.98R
WATERTOWN      MOSUNNY   84  63  49 NE7       29.99R
SISSETON         N/A     85  69  58 N6        29.95R
$$

SDZ017-020-022-023-036>040-048>070-120200-
SOUTHEAST SOUTH DAKOTA

CITY           SKY/WX    TMP DP  RH WIND       PRES   REMARKS
SIOUX FALLS    PTSUNNY   79  72  79 S7        29.99R
HURON          PTSUNNY   85  67  54 NE8       29.95R
CHAMBERLAIN    CLOUDY    84  69  60 E3        29.97S
MITCHELL       PTSUNNY   84  73  69 SE7       29.97R
YANKTON        CLOUDY    75  73  94 E6        29.98R
$$

ABBREVIATIONS USED IN REMARKS
   TC - TEMPERATURE IN CELSIUS
  WCI - WIND CHILL INDEX
   HX - HEAT INDEX
  VSB - VISIBILITY




USA.gov is the U.S. government's official web portal to all federal, state and local government web resources and services.